RYR87DZ EBCI-LFMU

Flight info

Callsign RYR87DZ
Flight time N/A
Altitude 39000
Route CIV Y50 REM B3 VATRI G40 TRO B373 MOU A27 MEN J27 AFRIC
Aircraft B38M/M-SDE1FGHILORVWXY/HB1

Departure

Time N/A
Airport Brussels South Charleroi Airport (EBCI)

Arrival

Time 2026-04-24 14:17
Airport Béziers Vias airport (LFMU)
Time Latitude Longitude Altitude Speed Heading
2026-04-24 13:53 43.88902 2.90892 16082 ft 305 kts 194°
2026-04-24 13:53 43.86848 2.90180 15760 ft 303 kts 194°
2026-04-24 13:54 43.84805 2.89474 15443 ft 302 kts 195°
2026-04-24 13:54 43.82742 2.88759 15123 ft 301 kts 194°
2026-04-24 13:54 43.80722 2.88059 14803 ft 299 kts 194°
2026-04-24 13:54 43.78708 2.87493 14449 ft 299 kts 182°
2026-04-24 13:55 43.77110 2.87749 14141 ft 301 kts 163°
2026-04-24 14:02 43.75583 2.88752 13915 ft 298 kts 147°
2026-04-24 14:02 43.73860 2.90318 13663 ft 295 kts 147°
2026-04-24 14:03 43.72152 2.91872 13351 ft 293 kts 147°
2026-04-24 14:03 43.70477 2.93412 13050 ft 291 kts 147°
2026-04-24 14:03 43.68808 2.94955 12747 ft 289 kts 146°
2026-04-24 14:03 43.67134 2.96506 12437 ft 287 kts 146°
2026-04-24 14:04 43.65480 2.98043 12140 ft 285 kts 146°
2026-04-24 14:04 43.63839 2.99565 11845 ft 284 kts 146°
2026-04-24 14:04 43.62202 3.01086 11537 ft 282 kts 146°
2026-04-24 14:04 43.60581 3.02591 11236 ft 280 kts 146°
2026-04-24 14:05 43.58970 3.04084 10929 ft 278 kts 146°
2026-04-24 14:05 43.57376 3.05562 10647 ft 275 kts 146°
2026-04-24 14:05 43.55789 3.07032 10360 ft 273 kts 146°
2026-04-24 14:05 43.54219 3.08484 10066 ft 272 kts 147°
2026-04-24 14:06 43.52647 3.09939 9770 ft 270 kts 147°
2026-04-24 14:06 43.51095 3.11375 9485 ft 268 kts 146°
2026-04-24 14:06 43.49552 3.12801 9208 ft 266 kts 147°
2026-04-24 14:06 43.48022 3.14212 8928 ft 264 kts 147°
2026-04-24 14:07 43.46496 3.15620 8623 ft 265 kts 147°
2026-04-24 14:07 43.44964 3.17033 8337 ft 264 kts 147°
2026-04-24 14:07 43.43450 3.18428 8096 ft 260 kts 147°
2026-04-24 14:07 43.41968 3.19793 7966 ft 253 kts 146°
2026-04-24 14:08 43.40527 3.21119 7838 ft 245 kts 147°
2026-04-24 14:08 43.39132 3.22404 7714 ft 237 kts 146°
2026-04-24 14:08 43.37784 3.23643 7592 ft 230 kts 147°
2026-04-24 14:08 43.36477 3.24843 7461 ft 222 kts 147°
2026-04-24 14:09 43.35200 3.26015 7341 ft 222 kts 146°
2026-04-24 14:09 43.33889 3.27162 7178 ft 225 kts 155°
2026-04-24 14:09 43.32355 3.27492 6832 ft 228 kts 190°
2026-04-24 14:09 43.30906 3.26624 6529 ft 230 kts 213°
2026-04-24 14:10 43.29580 3.25401 6274 ft 229 kts 212°
2026-04-24 14:10 43.28263 3.24201 5938 ft 232 kts 212°
2026-04-24 14:10 43.26908 3.22963 5542 ft 237 kts 213°
2026-04-24 14:10 43.25519 3.21689 5125 ft 242 kts 213°
2026-04-24 14:11 43.24273 3.20134 4791 ft 246 kts 238°
2026-04-24 14:11 43.23897 3.17885 4477 ft 245 kts 275°
2026-04-24 14:11 43.24744 3.13585 4101 ft 220 kts 287°
2026-04-24 14:12 43.25561 3.11870 3777 ft 211 kts 322°
2026-04-24 14:12 43.26846 3.11127 3612 ft 199 kts 354°
2026-04-24 14:12 43.28197 3.11205 3422 ft 187 kts
2026-04-24 14:12 43.29476 3.11281 3292 ft 182 kts
2026-04-24 14:13 43.30722 3.11365 3085 ft 182 kts
2026-04-24 14:13 43.31960 3.11537 2864 ft 178 kts 19°
2026-04-24 14:13 43.32924 3.12512 2659 ft 173 kts 58°
2026-04-24 14:13 43.33310 3.14032 2551 ft 169 kts 88°
2026-04-24 14:14 43.33302 3.15651 2485 ft 170 kts 94°
2026-04-24 14:14 43.33250 3.17279 2329 ft 171 kts 95°
2026-04-24 14:14 43.33125 3.20542 1992 ft 169 kts 95°
2026-04-24 14:15 43.33051 3.22167 1764 ft 171 kts 96°
2026-04-24 14:15 43.32967 3.23792 1560 ft 168 kts 96°
2026-04-24 14:15 43.32888 3.25335 1344 ft 158 kts 96°
2026-04-24 14:15 43.32816 3.26809 1100 ft 153 kts 97°
2026-04-24 14:16 43.32738 3.28241 873 ft 147 kts 96°
2026-04-24 14:16 43.32653 3.29699 693 ft 159 kts 96°
2026-04-24 14:16 43.32569 3.31212 530 ft 155 kts 97°
2026-04-24 14:17 43.32413 3.34098 123 ft 144 kts 99°
2026-04-24 14:17 43.32339 3.35370 54 ft 116 kts 93°
2026-04-24 14:17 43.32276 3.36540 53 ft 32 kts 96°
2026-04-24 14:18 43.32248 3.36717 51 ft 2 kts 50°
2026-04-24 14:18 43.32256 3.36713 53 ft 2 kts 320°
2026-04-24 14:18 43.32271 3.36642 50 ft 13 kts 276°
2026-04-24 14:18 43.32276 3.36492 53 ft 19 kts 275°
2026-04-24 14:19 43.32289 3.36290 54 ft 24 kts 274°
2026-04-24 14:19 43.32302 3.36042 52 ft 27 kts 275°
2026-04-24 14:19 43.32315 3.35842 54 ft 14 kts 276°
2026-04-24 14:19 43.32269 3.35785 56 ft 9 kts 187°
2026-04-24 14:20 43.32222 3.35781 56 ft 8 kts 183°
2026-04-24 14:20 43.32158 3.35775 52 ft 11 kts 184°
2026-04-24 14:20 43.32120 3.35710 57 ft 11 kts 271°
2026-04-24 14:20 43.32127 3.35596 55 ft 13 kts 276°
2026-04-24 14:21 43.32140 3.35479 57 ft 0 kts 240°
2026-04-24 14:21 43.32147 3.35507 52 ft 3 kts 293°
2026-04-24 14:21 43.32170 3.35423 58 ft 10 kts 279°
2026-04-24 14:22 43.32175 3.35336 52 ft 8 kts 273°
2026-04-24 14:22 43.32173 3.35285 59 ft 5 kts 242°
2026-04-24 14:22 43.32152 3.35272 59 ft 1 kts 174°
2026-04-24 14:23 43.32151 3.35292 59 ft 4 kts 46°
2026-04-24 14:23 43.32175 3.35246 52 ft 8 kts 274°
2026-04-24 14:23 43.32167 3.35221 59 ft 1 kts 213°
2026-04-24 14:23 43.32159 3.35222 59 ft 1 kts 174°
2026-04-24 14:24 43.32152 3.35229 59 ft 2 kts 134°
2026-04-24 14:24 43.32142 3.35243 59 ft 1 kts 133°